STARLINK-34550, 64683

Orbit data source: Space-Track

STARLINK-34550, 64683 is a payload satellite owned by SpaceX/Seattle (US) in LEO that was launched on Sat, 28 Jun 2025 UTC via an FALCON 9 launch vehicle from the Air Force Eastern Test Range (AFETR). Payload-class satellites include a variety of spacecraft equipped with specific instruments for various scientific and technological missions. These include communications satellites like Starlink; space stations such as the ISS; scientific satellites like the Hubble; Earth observation satellites from companies like Planet Labs, Umbra, and HawkEye 360; GPS; miniature CubeSats for education and research; and military/defense satellites.

Loading next visibility...
Identifier
64683, 2025-139V
Orbit
LEO
Country
Flag of USUS
Related business
Manufacturer
SpaceX/Seattle
Mission
Operational Commercial Communications
Bus & Motor
STARLINK V2MO, Unknown motor
Mass
575 kg wet, ~530 kg dry
Launch date (UTC)
2025-06-28 (1 year ago)
Launch vehicle
FALCON 9
Launch site
Air Force Eastern Test Range (AFETR)
Object type
Payload
Rocket body
Debris
Shape & HBR
Box + 2 Pan, 17.7 m
Radar Cross Section
36.964 m², Large (>1 m²)

Expand to show TLE details & history
Last TLE update: 14 hours ago

TLE from 14 hours ago
0 STARLINK-34550
1 64683U 25139V   26171.27307497  .00017539  00000-0  52893-3 0  9998
2 64683  53.1608   8.8762 0001217 109.8882 250.2252 15.34403863 56017
Epoch: 2026-06-20T06:33Z
TLE epoch observation values (Epoch: 2026-06-20T06:33:13.677Z)
Latitude
-0°
Longitude
2.07914°
Altitude
463.875 km
Speed
7.636 km/s
True Right ascension
00h 35m 30s
True Declination
0° 00' 00"
Sunlit
Object was in daylight at epoch
Visualization orbit readout
Latitude
Unknown
Longitude
Unknown
Altitude
Unknown
Speed
Unknown
Apparent Right ascension
Unknown
Apparent Declination
Unknown
Sunlit
N/A
Visualization observer readout
Local Sidereal Time
07:19:42
Azimuth
Unknown
Elevation
Unknown
Doppler factor
Unknown
Orbital elements
Apogee altitude
463.781 km
Perigee altitude
462.116 km
Semi-major axis
6,841.086 km
Eccentricity
0.00012
Inclination
53.1608°
RAAN
8.8762°
Arg. of periapsis
109.8882°
True anomaly
250.21208°
Mean anomaly
250.2252°
Eccentric anomaly
250.21864°
Mean motion
3.8358 °/min
Orbital period
93.85 mins
BSTAR
0.00052893
Loading maneuver chart data...
Computing Atmospheric mass density...
Loading historical data...
Loading historical data...
Loading historical data...
Loading historical data...
Loading historical data...
Loading historical data...
Loading historical data...

Documentation

Showing up to 5 results
|